Calgary Springbank, Alberta

2:25 AM MDT on July 24, 2016 (GMT -0600)
Springbank

Weather History for CYBW - November, 2014

Change the Weather History Date:

Thursday, November 6, 2014

  Actual Average Record
Temperature  
Mean Temperature 44 °F -  
Max Temperature 57 °F 33 °F 57 °F (1999)
Min Temperature 30 °F 13 °F 5 °F (2000)
Degree Days  
Heating Degree Days 22    
Moisture  
Dew Point 34 °F    
Average Humidity 74    
Maximum Humidity 93    
Minimum Humidity 48    
Precipitation  
Precipitation 0.00 in - - ()
Sea Level Pressure  
Sea Level Pressure 29.83 in    
Wind  
Wind Speed 7 mph ()    
Max Wind Speed 46 mph    
Max Gust Speed 63 mph    
Visibility 9.0 miles    
Events      
Averages and records for this station are not official NWS values.
T = Trace of Precipitation, MM = Missing Value Source: Averaged Metar Reports

Daily Weather History Graph

Daily Weather History Graph

Search for Another Location

Airport or City:

Trip Planner

Search our weather history database for the weather conditions in past years. The results will help you decide how hot, cold, wet, or windy it might be!

Date:

Astronomy

Nov. 06, 2014 Rise Set
Actual Time 7:38 AM MST 5:02 PM MST
Civil Twilight 7:03 AM MST 5:38 PM MST
Nautical Twilight 6:23 AM MST 6:17 PM MST
Astronomical Twilight 5:45 AM MST 6:56 PM MST
Moon 5:15 PM MST (11/6) 7:10 AM MST (11/6)
Length of Visible Light 10h 34m
Length of Day
9h 23m
Full, 100% of the Moon is Illuminated
Nov 6
Full
Nov 6
Full
Nov 14
Last Quarter
Nov 22
New
Nov 29
First Quarter

Hourly Weather History & Observations

Time (MST) Temp. Windchill Dew Point Humidity Pressure Visibility Wind Dir Wind Speed Gust Speed Precip Events Conditions
12:00 AM 30.2 °F 26.7 °F 28.4 °F 93% 30.14 in 9.0 mi SE 3.5 mph - N/A   Scattered Clouds
1:00 AM 30.2 °F - 28.4 °F 93% 30.11 in 9.0 mi Calm Calm - N/A   Mostly Cloudy
2:00 AM 32.0 °F 25.6 °F 28.4 °F 87% 30.07 in 9.0 mi SE 6.9 mph - N/A   Overcast
3:00 AM 32.0 °F 26.4 °F 28.4 °F 87% 30.06 in 9.0 mi Variable 5.8 mph - N/A   Overcast
4:00 AM 32.0 °F 27.5 °F 28.4 °F 87% 30.04 in 9.0 mi Variable 4.6 mph - N/A   Mostly Cloudy
5:00 AM 30.2 °F 26.7 °F 28.4 °F 93% 30.00 in 9.0 mi East 3.5 mph - N/A   Partly Cloudy
6:00 AM 33.8 °F - 28.4 °F 81% 29.99 in 9.0 mi Variable 2.3 mph - N/A   Mostly Cloudy
7:00 AM 33.8 °F - 30.2 °F 87% 29.96 in 9.0 mi Variable 2.3 mph - N/A   Mostly Cloudy
8:00 AM 33.8 °F - 30.2 °F 87% 29.93 in 9.0 mi Variable 2.3 mph - N/A   Clear
9:00 AM 33.8 °F - 30.2 °F 87% 29.90 in 9.0 mi Variable 2.3 mph - N/A   Clear
10:00 AM 39.2 °F - 33.8 °F 81% 29.85 in 9.0 mi Variable 2.3 mph - N/A   Clear
11:00 AM 42.8 °F 40.1 °F 35.6 °F 76% 29.81 in 9.0 mi East 4.6 mph - N/A   Mostly Cloudy
12:00 PM 46.4 °F - 37.4 °F 71% 29.75 in 9.0 mi Calm Calm - N/A   Clear
1:00 PM 48.2 °F - 39.2 °F 71% 29.73 in 9.0 mi South 4.6 mph - N/A   Mostly Cloudy
2:00 PM 51.8 °F - 39.2 °F 62% 29.65 in 9.0 mi Variable 3.5 mph - N/A   Scattered Clouds
3:00 PM 53.6 °F - 41.0 °F 62% 29.63 in 9.0 mi ESE 9.2 mph - N/A   Partly Cloudy
4:00 PM 57.2 °F - 37.4 °F 48% 29.63 in 9.0 mi West 17.3 mph 24.2 mph N/A   Scattered Clouds
5:00 PM 50.0 °F - 35.6 °F 58% 29.68 in 9.0 mi West 11.5 mph - N/A   Clear
5:35 PM 48.2 °F - 37.4 °F 66% 29.69 in 9.0 mi West 23.0 mph - N/A   Scattered Clouds
5:45 PM 50.0 °F - 37.4 °F 62% 29.67 in 9.0 mi West 38.0 mph 49.5 mph N/A   Partly Cloudy
6:00 PM 50.0 °F - 35.6 °F 58% 29.63 in 9.0 mi West 46.0 mph 63.3 mph N/A   Clear
7:00 PM 50.0 °F - 35.6 °F 58% 29.69 in 9.0 mi West 21.9 mph 36.8 mph N/A   Clear
8:00 PM 48.2 °F - 33.8 °F 58% 29.72 in 9.0 mi WNW 12.7 mph 18.4 mph N/A   Clear
9:00 PM 46.4 °F 39.5 °F 33.8 °F 62% 29.73 in 9.0 mi West 17.3 mph - N/A   Clear
10:00 PM 44.6 °F 38.4 °F 35.6 °F 71% 29.77 in 9.0 mi WNW 12.7 mph - N/A   Scattered Clouds
11:00 PM 41.0 °F 35.2 °F 33.8 °F 76% 29.81 in 9.0 mi North 9.2 mph - N/A   Mostly Cloudy